Location: Kerguer�zec
(48.4509°N, 4.7600°W)
Time: 09:07:51
(UTC+00:00)

Cosmos 2341 Rocket - Pass Details

Date: 09 April 2020
Orbit: 969 x 1004 km, 82.9° (Epoch: 23 May)

Event Time Altitude Azimuth Distance (km) Brightness Sun altitude
Rises 20:43:00 0° 349° (N) 3,736 7.7 -16.2°
Reaches altitude 10° 20:45:32 10° 348° (NNW) 2,785 7.0 -16.5°
Maximum altitude 20:51:56 76° 264° (W) 1,038 4.2 -17.4°
Drops below altitude 10° 20:58:18 10° 180° (S) 2,771 6.0 -18.3°
Enters shadow 20:58:25 - 180° (S) 2,816 6.1 -18.3°
